Waarnemingen

Advertentie
Mijn weer
Reims-Prunay, Frankrijk (7072): temperatuur & dauwpunt: 16.02.2017 11:00:00 - 22.02.2017 11:00:00 (CET)Reims-Prunay, Frankrijk (7072): temperatuur 5cm: 16.02.2017 11:00:00 - 22.02.2017 11:00:00 (CET)Reims-Prunay, Frankrijk (7072): temperatuur -20cm & temperatuur -100cm: 16.02.2017 11:00:00 - 22.02.2017 11:00:00 (CET)Reims-Prunay, Frankrijk (7072): windsnelheid & windstoten: 16.02.2017 11:00:00 - 22.02.2017 11:00:00 (CET)Reims-Prunay, Frankrijk (7072): windrichting: 16.02.2017 11:00:00 - 22.02.2017 11:00:00 (CET)Reims-Prunay, Frankrijk (7072): luchtdruk: 16.02.2017 11:00:00 - 22.02.2017 11:00:00 (CET)Reims-Prunay, Frankrijk (7072): zicht: 16.02.2017 11:00:00 - 22.02.2017 11:00:00 (CET)Reims-Prunay, Frankrijk (7072): Zonneschijnduur: 16.02.2017 11:00:00 - 22.02.2017 11:00:00 (CET)Reims-Prunay, Frankrijk (7072): neerslag: 16.02.2017 11:00:00 - 22.02.2017 11:00:00 (CET)
Datum & Tijd tt [°C] td [°C] tt 5cm [°C] tt -20cm [°C] tt -100cm [°C] ff [km/u] ff [kn] fx [km/u] fx [kn] dd ppp [hPa] vv [km] sd [min] rr [mm]
22.02.2017 11:00:00 10,5 7,2 10,4 7,6 6,3 21 12 42 23 WZW 1016,4 20 0 0,0
22.02.2017 10:00:00 10,5 6,8 10,2 7,7 6,3 21 11 41 22 W 1016,6 20 0 0,0
22.02.2017 09:00:00 10,5 6,4 9,9 7,6 6,3 23 12 44 24 W 1016,6 20 0 0,0
22.02.2017 08:00:00 10,4 6,7 9,7 7,7 6,3 18 10 36 20 W 1016,1 20 0 0,0
22.02.2017 07:00:00 10,2 7,1 9,7 7,7 6,3 19 10 37 20 WZW 1016,0 20 0 0,0
22.02.2017 06:00:00 10,5 7,0 10,0 7,7 6,3 19 11 34 18 W 1016,3 20 0 0,0
22.02.2017 05:00:00 10,8 7,7 10,1 7,7 6,3 22 12 46 25 W 1016,5 20 0 0,0
22.02.2017 04:00:00 10,6 8,4 10,0 7,7 6,3 19 10 35 19 WZW 1016,7 20 0 0,0
22.02.2017 03:00:00 10,8 8,2 10,3 7,7 6,3 21 11 38 20 W 1017,2 20 0 0,0
22.02.2017 02:00:00 11,1 8,1 10,6 7,6 6,2 23 12 38 20 W 1017,7 20 0 0,0
22.02.2017 01:00:00 11,2 8,6 10,7 7,7 6,3 19 10 35 19 W 1018,1 20 0 0,0
22.02.2017 00:00:00 11,2 9,1 10,8 7,6 6,2 20 11 34 18 W 1018,6 20 0 0,0
21.02.2017 23:00:00 11,5 9,1 10,9 7,6 6,2 18 10 43 23 W 1018,4 20 0 0,0
21.02.2017 22:00:00 11,5 9,4 10,8 7,6 6,2 20 11 33 18 W 1018,9 20 0 0,0
21.02.2017 21:00:00 11,3 9,4 10,9 7,6 6,2 19 10 33 18 W 1018,9 20 0 0,0
21.02.2017 20:00:00 11,4 9,6 10,8 7,6 6,2 18 10 32 18 W 1019,0 20 0 0,0
21.02.2017 19:00:00 11,1 9,5 10,6 7,5 6,2 14 8 27 15 W 1019,4 20 0 0,0
21.02.2017 18:00:00 10,9 9,7 10,6 7,5 6,2 16 8 29 16 W 1019,5 20 0 0,0
21.02.2017 17:00:00 10,9 9,7 10,6 7,4 6,2 18 10 32 17 W 1019,5 20 0 0,0
21.02.2017 16:00:00 10,8 9,6 10,4 7,4 6,2 21 11 35 19 W 1019,7 20 0 0,0
21.02.2017 15:00:00 10,9 9,3 10,4 7,2 6,2 20 11 36 19 W 1019,9 20 0 0,0
21.02.2017 14:00:00 10,6 9,0 10,2 7,2 6,2 19 11 36 19 W 1020,2 17 0 0,0
21.02.2017 13:00:00 10,5 9,1 10,0 7,1 6,2 21 11 37 20 W 1020,6 10 0 0,2
21.02.2017 12:00:00 10,1 8,9 9,7 7,1 6,2 21 11 34 18 W 1020,9 14 0 0,0
21.02.2017 11:00:00 10,2 9,1 9,9 7,0 6,2 17 9 36 19 WNW 1020,7 9 0 0,0
21.02.2017 10:00:00 10,4 9,5 10,2 7,0 6,2 18 10 32 17 W 1020,4 8 0 0,0
21.02.2017 09:00:00 10,5 9,6 9,8 7,0 6,2 13 7 28 15 W 1020,3 20 0 0,0
21.02.2017 08:00:00 10,5 9,6 9,8 6,9 6,2 14 8 29 16 W 1019,9 11 0 0,0
21.02.2017 07:00:00 10,7 9,5 10,0 6,9 6,1 18 10 33 18 W 1019,4 20 0 0,0
21.02.2017 06:00:00 10,5 9,7 10,0 6,9 6,2 15 8 32 17 W 1019,3 17 0 0,0
21.02.2017 05:00:00 10,9 9,8 10,3 6,8 6,2 13 7 31 17 W 1019,4 19 0 0,0
21.02.2017 04:00:00 11,2 9,9 10,5 6,8 6,2 14 8 29 15 W 1019,3 19 0 0,0
21.02.2017 03:00:00 11,3 10,2 10,6 6,8 6,2 10 6 26 14 W 1019,8 18 0 0,0
21.02.2017 02:00:00 11,0 10,5 10,6 6,7 6,2 12 6 27 14 W 1020,2 7 0 0,2
21.02.2017 01:00:00 11,1 10,5 10,7 6,7 6,2 14 7 36 19 W 1020,4 4,5 0 0,0
21.02.2017 00:00:00 11,1 10,3 10,5 6,6 6,1 21 11 36 19 W 1020,4 7 0 0,0
20.02.2017 23:00:00 11,0 10,2 10,3 6,6 6,1 16 9 25 13 W 1020,5 8 0 0,0
20.02.2017 22:00:00 10,8 10,0 9,9 6,5 6,1 11 6 23 12 W 1020,8 9 0 0,0
20.02.2017 21:00:00 10,4 9,5 9,7 6,5 6,1 11 6 22 12 W 1020,9 13 0 0,0
20.02.2017 20:00:00 10,3 9,2 9,1 6,5 6,2 13 7 23 12 W 1021,1 16 0 0,0
20.02.2017 19:00:00 9,6 8,8 9,0 6,4 6,1 10 5 16 8 WZW 1021,0 15 0 0,0
20.02.2017 18:00:00 9,6 8,7 9,1 6,4 6,1 10 5 23 12 WZW 1021,1 4,4 0 0,0
20.02.2017 17:00:00 9,7 8,6 9,2 6,3 6,1 15 8 21 12 WZW 1021,0 11 0 0,0
20.02.2017 16:00:00 9,7 8,8 9,4 6,2 6,1 10 5 21 11 WZW 1021,0 13 0 0,2
20.02.2017 15:00:00 9,6 8,7 9,2 6,1 6,1 13 7 27 14 WZW 1021,3 6 0 0,2
20.02.2017 14:00:00 10,0 8,3 10,0 6,1 6,1 13 7 26 14 WZW 1021,9 12 0 0,0
20.02.2017 13:00:00 9,7 7,8 9,8 6,0 6,1 13 7 21 12 ZW 1022,5 16 0 0,0
20.02.2017 12:00:00 9,4 7,8 9,2 6,0 6,1 13 7 21 12 WZW 1023,1 20 0 0,0
20.02.2017 11:00:00 9,0 7,4 8,3 6,0 6,1 9 5 23 13 WZW 1023,1 20 0 0,0
20.02.2017 10:00:00 8,2 7,1 7,9 6,0 6,1 11 6 21 12 ZW 1023,3 19 0 0,0
20.02.2017 09:00:00 8,0 6,6 6,4 5,9 6,1 13 7 23 13 ZW 1023,0 20 10 0,0
20.02.2017 08:00:00 7,5 6,6 6,9 6,0 6,1 8 5 14 7 WZW 1023,5 8 0 0,0
20.02.2017 07:00:00 7,5 6,1 6,7 5,9 6,1 6 3 14 8 ZW 1023,2 9 0 0,0
20.02.2017 06:00:00 7,4 6,2 6,7 6,0 6,1 6 4 15 8 ZW 1023,2 7 0 0,0
20.02.2017 05:00:00 7,5 6,4 6,8 6,0 6,1 9 5 23 12 W 1023,6 3,9 0 0,0
20.02.2017 04:00:00 8,1 5,9 6,4 6,0 6,1 5 3 10 5 W 1023,9 9 0 0,0
20.02.2017 03:00:00 6,7 5,8 6,2 6,0 6,1 4 2 5 3 OZO 1024,2 7 0 0,0
20.02.2017 02:00:00 7,6 5,7 6,0 6,0 6,1 3 2 10 6 WZW 1024,9 11 0 0,0
20.02.2017 01:00:00 7,8 5,9 6,5 6,0 6,1 6 3 9 5 W 1024,8 11 0 0,0
20.02.2017 00:00:00 7,7 5,5 6,7 6,0 6,1 2 1 7 4 WZW 1025,0 11 0 0,0
19.02.2017 23:00:00 8,1 5,7 7,4 6,0 6,1 4 2 16 9 W 1025,0 14 0 0,0
19.02.2017 22:00:00 7,9 5,7 7,4 6,0 6,1 6 4 12 7 W 1024,9 14 0 0,0
19.02.2017 21:00:00 8,4 5,5 7,2 6,0 6,1 8 4 15 8 WNW 1024,8 16 0 0,0
19.02.2017 20:00:00 8,5 5,2 7,3 5,9 6,1 9 5 16 9 W 1024,4 14 0 0,0
19.02.2017 19:00:00 9,3 5,5 8,5 5,8 6,1 9 5 24 13 W 1024,1 13 0 0,0
19.02.2017 18:00:00 9,8 5,0 9,1 5,7 6,1 14 8 29 15 W 1023,7 18 0 0,0
19.02.2017 17:00:00 11,0 4,7 10,8 5,5 6,1 15 8 25 13 W 1023,5 20 32 0,0
19.02.2017 16:00:00 11,8 4,0 12,2 5,3 6,1 14 7 24 13 W 1023,6 20 54 0,0
19.02.2017 15:00:00 11,1 3,1 12,3 5,0 6,1 13 7 22 12 W 1023,8 20 46 0,0
19.02.2017 14:00:00 11,1 4,5 13,8 4,9 6,1 5 3 14 8 ZZW 1024,3 20 60 0,0
19.02.2017 13:00:00 7,9 6,2 10,4 4,7 6,1 0 0 8 5 N 1025,5 18 54 0,0
19.02.2017 12:00:00 4,8 4,1 6,8 4,7 6,0 4 2 10 6 ZO 1026,4 11 60 0,0
19.02.2017 11:00:00 1,4 1,4 0,4 4,8 6,1 5 3 9 5 O 1026,3 9 52 0,0
19.02.2017 10:00:00 -1,3 -1,3 -1,0 4,8 6,1 0 0 0 0 N 1026,4 0,2 46 0,0
19.02.2017 09:00:00 -2,6 -2,7 -2,8 4,9 6,1 0 0 0 0 N 1027,0 0,2 27 0,0
19.02.2017 08:00:00 -3,1 -3,2 -3,2 5,0 6,1 0 0 0 0 N 1026,3 0,1 0 0,0
19.02.2017 07:00:00 -2,8 -2,9 -3,0 5,0 6,1 0 0 0 0 N 1025,6 0,2 0 0,0
19.02.2017 06:00:00 -2,4 -2,4 -2,6 5,1 6,1 0 0 0 0 N 1025,8 0,1 0 0,0
19.02.2017 05:00:00 -2,0 -2,0 -1,9 5,2 6,1 0 0 0 0 N 1025,6 0,2 0 0,0
19.02.2017 04:00:00 -1,3 -1,3 -1,2 5,2 6,0 0 0 0 0 N 1025,9 0,1 0 0,0
19.02.2017 03:00:00 -0,6 -0,6 -0,8 5,3 6,0 0 0 7 4 N 1026,5 0,2 0 0,0
19.02.2017 02:00:00 -0,4 -0,4 -0,3 5,3 6,1 4 2 7 4 N 1026,5 0,1 0 0,0
19.02.2017 01:00:00 0,0 0,0 0,2 5,4 6,0 3 1 7 4 N 1026,6 0,1 0 0,0
19.02.2017 00:00:00 1,0 1,0 1,2 5,4 6,0 3 2 9 5 N 1026,6 0,1 0 0,0
18.02.2017 23:00:00 1,9 1,9 1,7 5,5 6,0 8 4 11 6 NNW 1026,7 0,1 0 0,0
18.02.2017 22:00:00 1,8 1,8 1,7 5,5 6,0 6 3 9 5 WNW 1026,7 0,1 0 0,0
18.02.2017 21:00:00 2,2 2,2 1,3 5,6 6,0 2 1 6 3 NNW 1026,4 0,1 0 0,0
18.02.2017 20:00:00 2,1 2,0 -0,8 5,6 6,0 3 2 10 5 WNW 1026,4 0,1 0 0,0
18.02.2017 19:00:00 4,0 3,6 -1,1 5,5 6,0 6 3 9 5 WZW 1026,5 3,6 0 0,0
18.02.2017 18:00:00 6,0 4,6 3,9 5,4 6,0 4 2 9 5 WNW 1026,0 7 43 0,0
18.02.2017 17:00:00 7,0 5,8 9,7 5,3 6,0 5 3 8 5 NW 1026,2 7 60 0,0
18.02.2017 16:00:00 6,7 5,6 8,5 5,2 6,0 4 2 9 5 NNW 1026,4 8 43 0,0
18.02.2017 15:00:00 5,7 5,7 6,7 5,1 6,0 5 3 11 6 OZO 1026,6 6 0 0,0
18.02.2017 14:00:00 5,4 5,4 6,1 5,0 6,0 7 4 13 7 OZO 1027,2 3,0 0 0,0
18.02.2017 13:00:00 5,0 5,0 5,4 5,0 6,0 8 4 15 8 OZO 1027,8 1,0 0 0,0
18.02.2017 12:00:00 3,8 3,8 4,5 5,0 6,0 11 6 16 8 OZO 1028,3 0,4 0 0,0
18.02.2017 11:00:00 3,0 3,0 3,7 5,0 6,0 9 5 14 8 OZO 1028,5 0,3 0 0,0
18.02.2017 10:00:00 2,8 2,8 2,4 5,0 6,0 9 5 12 6 OZO 1028,2 0,2 0 0,0
18.02.2017 09:00:00 1,9 1,9 0,0 5,2 6,0 4 2 8 4 O 1028,1 0,1 0 0,0
18.02.2017 08:00:00 0,2 0,2 -0,9 5,2 6,0 2 1 8 5 ONO 1028,1 0,2 0 0,0
18.02.2017 07:00:00 -0,8 -0,8 -1,4 5,4 6,0 5 3 6 3 OZO 1028,0 0,1 0 0,0
18.02.2017 06:00:00 -0,5 -0,5 -3,5 5,5 6,0 3 2 4 2 NNW 1028,1 0,1 0 0,0
18.02.2017 05:00:00 -0,3 -0,4 -2,5 5,6 6,0 2 1 5 3 NNW 1028,1 0,4 0 0,0
18.02.2017 04:00:00 -0,1 -0,2 -3,3 5,7 6,0 4 2 6 3 ONO 1028,1 0,2 0 0,0
18.02.2017 03:00:00 0,8 0,2 -2,9 5,7 6,0 0 0 4 2 N 1028,1 0,2 0 0,0
18.02.2017 02:00:00 2,8 2,4 0,3 5,8 5,9 0 0 5 3 N 1028,5 4,8 0 0,0
18.02.2017 01:00:00 3,3 3,0 2,9 5,9 6,0 0 0 4 2 N 1029,0 7 0 0,0
18.02.2017 00:00:00 2,8 2,5 2,4 6,0 6,0 2 1 6 3 NW 1029,2 5 0 0,0
17.02.2017 23:00:00 2,3 2,2 -0,9 6,1 5,9 6 3 8 4 N 1029,5 6 0 0,0
17.02.2017 22:00:00 1,6 1,3 -1,4 6,2 6,0 4 2 5 3 N 1029,5 4,9 0 0,0
17.02.2017 21:00:00 2,3 1,4 -1,1 6,2 5,9 2 1 10 5 O 1029,4 6 0 0,0
17.02.2017 20:00:00 3,5 1,9 0,1 6,2 6,0 4 2 9 5 ZZW 1028,8 9 0 0,0
17.02.2017 19:00:00 6,6 4,1 4,5 6,1 5,9 8 4 15 8 WNW 1028,6 20 0 0,0
17.02.2017 18:00:00 8,2 4,8 7,0 6,0 5,9 9 5 22 12 WZW 1028,2 20 42 0,0
17.02.2017 17:00:00 9,9 4,9 11,0 5,8 5,9 11 6 25 14 WNW 1028,5 20 60 0,0
17.02.2017 16:00:00 10,9 5,4 12,1 5,7 5,9 13 7 22 12 W 1028,4 20 58 0,0
17.02.2017 15:00:00 10,0 6,0 10,2 5,6 5,9 10 5 17 9 WNW 1028,6 19 7 0,0
17.02.2017 14:00:00 9,4 6,7 9,9 5,5 5,9 7 4 18 10 WNW 1029,1 16 0 0,0
17.02.2017 13:00:00 9,0 6,8 9,5 5,4 5,9 12 7 17 9 NNW 1029,3 13 0 0,0
17.02.2017 12:00:00 8,8 6,8 8,9 5,3 5,9 9 5 16 9 WNW 1029,5 13 0 0,0
17.02.2017 11:00:00 7,7 6,2 6,8 5,3 5,9 9 5 16 9 WNW 1029,4 12 4 0,0
17.02.2017 10:00:00 6,7 6,0 6,2 5,3 5,9 8 4 11 6 W 1029,4 6 0 0,0
17.02.2017 09:00:00 6,1 5,8 5,4 5,3 5,9 5 3 8 5 W 1029,5 4,1 0 0,0
17.02.2017 08:00:00 5,7 5,3 4,4 5,3 5,9 0 0 8 5 N 1029,1 3,2 0 0,0
17.02.2017 07:00:00 6,0 5,6 5,2 5,3 5,9 5 3 8 5 WZW 1028,9 3,8 0 0,0
17.02.2017 06:00:00 6,1 5,7 5,6 5,4 5,9 6 4 12 6 W 1029,0 3,6 0 0,0
17.02.2017 05:00:00 5,8 5,7 3,0 5,4 5,9 5 3 10 6 WNW 1029,1 4,0 0 0,0
17.02.2017 04:00:00 5,1 4,8 3,0 5,4 5,9 4 2 6 3 W 1029,2 1,6 0 0,0
17.02.2017 03:00:00 5,6 5,3 3,9 5,4 5,9 0 0 5 3 N 1029,4 1,9 0 0,0
17.02.2017 02:00:00 5,8 5,2 4,5 5,4 5,9 0 0 15 8 N 1029,3 1,3 0 0,0
17.02.2017 01:00:00 7,0 6,4 6,1 5,4 5,9 10 5 18 10 NW 1029,5 2,8 0 0,0
17.02.2017 00:00:00 7,9 7,3 7,2 5,4 5,9 9 5 17 9 NW 1029,6 2,9 0 0,0
16.02.2017 23:00:00 8,0 7,7 5,6 5,4 5,9 6 3 12 7 NW 1030,0 3,3 0 0,2
16.02.2017 22:00:00 6,2 6,1 3,3 5,4 5,9 3 2 9 5 WNW 1030,0 0,4 0 0,0
16.02.2017 21:00:00 6,7 6,6 4,4 5,4 5,9 5 3 9 5 N 1029,8 2,1 0 0,0
16.02.2017 20:00:00 7,4 7,1 5,1 5,3 5,9 0 0 6 3 N 1029,7 1,2 0 0,0
16.02.2017 19:00:00 8,0 7,7 6,9 5,2 5,9 2 1 9 5 NNW 1030,0 3,5 0 0,0
16.02.2017 18:00:00 9,0 8,4 8,1 5,1 5,9 2 1 9 5 ZZO 1029,9 8 0 0,0
16.02.2017 17:00:00 9,5 9,0 9,5 5,0 5,9 6 4 9 5 OZO 1029,9 4,0 6 0,0
16.02.2017 16:00:00 9,5 8,9 9,0 4,8 5,9 4 2 7 4 ONO 1030,0 7 4 0,0
16.02.2017 15:00:00 8,6 8,2 8,7 4,7 5,9 7 4 10 6 OZO 1030,5 4,0 0 0,2
16.02.2017 14:00:00 8,6 8,3 8,7 4,6 5,9 4 2 13 7 OZO 1030,8 3,3 0 0,2
16.02.2017 13:00:00 7,9 7,6 7,5 4,6 5,9 10 5 13 7 ONO 1031,3 3,4 0 0,4
16.02.2017 12:00:00 6,7 6,4 5,4 4,6 5,9 8 4 13 7 OZO 1032,2 4,8 0 1,5
16.02.2017 11:00:00 5,1 4,8 4,7 4,6 5,9 3 1 11 6 NNW 1032,4 3,0 0 1,2

tt = temperatuur
td = dauwpunt
tt 5cm = temperatuur 5cm
tt -20cm = temperatuur -20cm
tt -100cm = temperatuur -100cm
ff = windsnelheid
fx = windstoten
dd = windrichting
ppp = luchtdruk
vv = zicht
sd = Zonneschijnduur
rr = neerslag

Weerstations in de omgeving